[Date Prev][Date Next][Thread Prev][Thread Next] - [Date Index][Thread Index][Author Index]

2 Line ISS Keps 6-22



ISS
1 25544U 98067A   01173.16157383  .00046598  00000-0  51103-3 0  1195
2 25544  51.5722  63.5338 0016756 190.2917 266.9662 15.62588402147859

----
Via the sarex mailing list at AMSAT.ORG courtesy of AMSAT-NA.
To unsubscribe, send "unsubscribe sarex" to Majordomo@amsat.org



AMSAT Top AMSAT Home